Davenport, IA

3:58 AM CDT on March 27, 2017 (GMT -0500)
Davenport Municipal

Weather History for KDVN - September, 2012

Change the Weather History Date:

Sunday, September 9, 2012

  Actual Average Record
Temperature  
Mean Temperature 61 °F 66 °F  
Max Temperature 73 °F 78 °F 97 °F (2013)
Min Temperature 49 °F 54 °F 41 °F (2008)
Degree Days  
Heating Degree Days 4 2  
Month to date heating degree days 8 13  
Since 1 July heating degree days 21 27  
Cooling Degree Days 0 3  
Month to date cooling degree days 60 33  
Year to date cooling degree days 1091 737  
Growing Degree Days 10 (Base 50)    
Moisture  
Dew Point 49 °F    
Average Humidity 66    
Maximum Humidity 93    
Minimum Humidity 38    
Precipitation  
Precipitation 0.00 in 0.09 in 1.63 in (2014)
Month to date precipitation 1.40 0.85  
Year to date precipitation 23.39 26.67  
Snow  
Snow 0.00 in - - ()
Month to date snowfall 0.0  
Since 1 July snowfall 0.0  
Since 1 September snowfall 0.0  
Snow Depth 0.00 in    
Sea Level Pressure  
Sea Level Pressure 30.09 in    
Wind  
Wind Speed 6 mph (North)    
Max Wind Speed 16 mph    
Max Gust Speed 21 mph    
Visibility 10 miles    
Events      
T = Trace of Precipitation, MM = Missing Value Source: NWS Daily Summary

Daily Weather History Graph

Daily Weather History Graph

Search for Another Location

Airport or City:

Trip Planner

Search our weather history database for the weather conditions in past years. The results will help you decide how hot, cold, wet, or windy it might be!

Date:

Astronomy

Sep. 09, 2012 Rise Set
Actual Time 6:37 AM CDT 7:21 PM CDT
Civil Twilight 6:08 AM CDT 7:49 PM CDT
Nautical Twilight 5:35 AM CDT 8:22 PM CDT
Astronomical Twilight 5:01 AM CDT 8:56 PM CDT
Moon 12:02 AM CDT (9/9) 3:10 PM CDT (9/9)
Length of Visible Light 13h 40m
Length of Day
12h 44m
Last Quarter, 39% of the Moon is Illuminated
Sep 9
Last Quarter
Sep 15
New
Sep 22
First Quarter
Sep 29
Full
Oct 8
Last Quarter

Hourly Weather History & Observations

Time (CDT) Temp. Dew Point Humidity Pressure Visibility Wind Dir Wind Speed Gust Speed Precip Events Conditions
12:52 AM 57.0 °F 48.0 °F 72% 29.94 in 10.0 mi North 8.1 mph - N/A   Clear
1:52 AM 53.1 °F 48.9 °F 86% 29.95 in 10.0 mi NW 4.6 mph - N/A   Clear
2:52 AM 52.0 °F 48.0 °F 86% 29.96 in 10.0 mi WNW 5.8 mph - N/A   Clear
3:52 AM 50.0 °F 48.0 °F 93% 29.98 in 10.0 mi NW 5.8 mph - N/A   Clear
4:52 AM 50.0 °F 46.9 °F 89% 30.00 in 10.0 mi NW 5.8 mph - N/A   Clear
5:52 AM 48.9 °F 46.9 °F 93% 30.03 in 10.0 mi NW 4.6 mph - N/A   Clear
6:52 AM 50.0 °F 48.0 °F 93% 30.06 in 10.0 mi NW 4.6 mph - N/A   Clear
7:52 AM 53.1 °F 50.0 °F 89% 30.09 in 10.0 mi NNW 5.8 mph - N/A   Clear
8:52 AM 57.9 °F 51.1 °F 78% 30.10 in 10.0 mi North 8.1 mph - N/A   Clear
9:52 AM 62.1 °F 52.0 °F 70% 30.12 in 10.0 mi North 10.4 mph - N/A   Partly Cloudy
10:52 AM 64.9 °F 52.0 °F 63% 30.15 in 10.0 mi NNE 11.5 mph - N/A   Clear
11:52 AM 68.0 °F 50.0 °F 52% 30.14 in 10.0 mi North 11.5 mph - N/A   Clear
12:52 PM 70.0 °F 48.0 °F 46% 30.14 in 10.0 mi NNE 9.2 mph - N/A   Clear
1:52 PM 71.1 °F 48.0 °F 44% 30.13 in 10.0 mi NE 12.7 mph - N/A   Clear
2:52 PM 73.0 °F 46.9 °F 39% 30.12 in 10.0 mi North 13.8 mph 20.7 mph N/A   Clear
3:52 PM 73.0 °F 48.0 °F 41% 30.12 in 10.0 mi North 10.4 mph - N/A   Clear
4:52 PM 73.0 °F 48.9 °F 42% 30.12 in 10.0 mi North 8.1 mph - N/A   Clear
5:52 PM 72.0 °F 48.0 °F 43% 30.13 in 10.0 mi North 5.8 mph - N/A   Clear
6:52 PM 66.9 °F 51.1 °F 57% 30.13 in 10.0 mi North 5.8 mph - N/A   Clear
7:52 PM 60.1 °F 51.1 °F 72% 30.14 in 10.0 mi NNE 3.5 mph - N/A   Clear
8:52 PM 57.0 °F 50.0 °F 77% 30.15 in 10.0 mi Calm Calm - N/A   Clear
9:52 PM 53.1 °F 50.0 °F 89% 30.16 in 10.0 mi Calm Calm - N/A   Clear
10:52 PM 52.0 °F 48.9 °F 89% 30.17 in 10.0 mi Calm Calm - N/A   Clear
11:52 PM 50.0 °F 46.9 °F 89% 30.17 in 10.0 mi East 3.5 mph - N/A   Clear